Time,TemperatureF,DewpointF,PressureIn,WindDirection,WindDirectionDegrees,WindSpeedMPH,WindSpeedGustMPH,Humidity,HourlyPrecipIn,Conditions,Clouds,dailyrainin,SolarRadiationWatts/m^2,SoftwareType,DateUTC
2013-10-30 00:02:00,43.0,40.0,-100.00,WSW,238,0.0,3.0,88,0.00,,,0.00,0.000000,,2013-10-30 07:02:00,
2013-10-30 00:42:00,43.0,40.0,-100.00,SW,215,2.0,5.0,89,0.00,,,0.00,0.000000,,2013-10-30 07:42:00,
2013-10-30 00:52:00,43.0,40.0,-100.00,SW,215,2.0,5.0,89,0.00,,,0.00,0.000000,,2013-10-30 07:52:00,
2013-10-30 01:02:00,43.0,40.0,-100.00,SW,215,2.0,5.0,89,0.00,,,0.00,0.000000,,2013-10-30 08:02:00,
2013-10-30 01:22:00,44.0,40.0,-100.00,SSW,211,3.0,6.0,86,0.00,,,0.00,0.000000,,2013-10-30 08:22:00,
2013-10-30 01:32:00,44.0,40.0,-100.00,SSW,211,3.0,6.0,86,0.00,,,0.00,0.000000,,2013-10-30 08:32:00,
2013-10-30 01:42:00,44.0,40.0,-100.00,SSW,211,3.0,6.0,86,0.00,,,0.00,0.000000,,2013-10-30 08:42:00,
2013-10-30 01:52:00,44.0,40.0,-100.00,SSW,211,3.0,6.0,86,0.00,,,0.00,0.000000,,2013-10-30 08:52:00,
2013-10-30 02:02:00,44.0,40.0,-100.00,SSW,211,3.0,6.0,86,0.00,,,0.00,0.000000,,2013-10-30 09:02:00,
2013-10-30 02:43:00,41.0,38.0,-100.00,SW,224,2.0,5.0,89,0.00,,,0.00,0.000000,,2013-10-30 09:43:00,
2013-10-30 02:54:00,41.0,38.0,-100.00,SW,224,2.0,5.0,89,0.00,,,0.00,0.000000,,2013-10-30 09:54:00,
2013-10-30 03:03:00,41.0,38.0,-100.00,SW,224,2.0,5.0,89,0.00,,,0.00,0.000000,,2013-10-30 10:03:00,
2013-10-30 03:43:00,41.0,38.0,-100.00,SW,215,2.0,5.0,88,0.00,,,0.00,0.000000,,2013-10-30 10:43:00,
2013-10-30 03:53:00,41.0,38.0,-100.00,SW,215,2.0,5.0,88,0.00,,,0.00,0.000000,,2013-10-30 10:53:00,
2013-10-30 04:02:00,41.0,38.0,-100.00,SW,215,2.0,5.0,88,0.00,,,0.00,0.000000,,2013-10-30 11:02:00,
2013-10-30 04:42:00,41.0,38.0,-100.00,SSW,207,2.0,6.0,89,0.00,,,0.00,0.000000,,2013-10-30 11:42:00,
2013-10-30 04:52:00,41.0,38.0,-100.00,SSW,207,2.0,6.0,89,0.00,,,0.00,0.000000,,2013-10-30 11:52:00,
2013-10-30 05:01:00,41.0,38.0,-100.00,SSW,207,2.0,6.0,89,0.00,,,0.00,0.000000,,2013-10-30 12:01:00,
2013-10-30 05:22:00,40.0,37.0,-100.00,SW,228,2.0,6.0,89,0.00,,,0.00,0.000000,,2013-10-30 12:22:00,
2013-10-30 05:32:00,40.0,37.0,-100.00,SW,228,2.0,6.0,89,0.00,,,0.00,0.000000,,2013-10-30 12:32:00,
2013-10-30 05:42:00,40.0,37.0,-100.00,SW,228,2.0,6.0,89,0.00,,,0.00,0.000000,,2013-10-30 12:42:00,
2013-10-30 05:52:00,40.0,37.0,-100.00,SW,228,2.0,6.0,89,0.00,,,0.00,0.000000,,2013-10-30 12:52:00,
2013-10-30 06:02:00,40.0,37.0,-100.00,SW,228,2.0,6.0,89,0.00,,,0.00,0.000000,,2013-10-30 13:02:00,
2013-10-30 06:42:00,41.0,37.0,-100.00,SW,232,3.0,7.0,87,0.00,,,0.00,0.000000,,2013-10-30 13:42:00,
2013-10-30 06:52:00,41.0,37.0,-100.00,SW,232,3.0,7.0,87,0.00,,,0.00,0.000000,,2013-10-30 13:52:00,
2013-10-30 07:02:00,41.0,37.0,-100.00,SW,232,3.0,7.0,87,0.00,,,0.00,0.000000,,2013-10-30 14:02:00,
2013-10-30 07:42:00,41.0,37.0,-100.00,WSW,250,4.0,8.0,87,0.00,,,0.00,0.000000,,2013-10-30 14:42:00,
2013-10-30 07:52:00,41.0,37.0,-100.00,WSW,250,4.0,8.0,87,0.00,,,0.00,0.000000,,2013-10-30 14:52:00,
2013-10-30 08:01:00,41.0,37.0,-100.00,WSW,250,4.0,8.0,87,0.00,,,0.00,0.000000,,2013-10-30 15:01:00,
2013-10-30 08:43:00,42.0,38.0,-100.00,WSW,237,3.0,8.0,86,0.00,,,0.00,8.000000,,2013-10-30 15:43:00,
2013-10-30 08:54:00,42.0,38.0,-100.00,WSW,237,3.0,8.0,86,0.00,,,0.00,8.000000,,2013-10-30 15:54:00,
2013-10-30 09:03:00,42.0,38.0,-100.00,WSW,237,3.0,8.0,86,0.00,,,0.00,8.000000,,2013-10-30 16:03:00,
2013-10-30 09:23:00,48.0,40.0,-100.00,WSW,239,2.0,9.0,74,0.00,,,0.00,134.000000,,2013-10-30 16:23:00,
2013-10-30 09:33:00,48.0,40.0,-100.00,WSW,239,2.0,9.0,74,0.00,,,0.00,134.000000,,2013-10-30 16:33:00,
2013-10-30 09:43:00,48.0,40.0,-100.00,WSW,239,2.0,9.0,74,0.00,,,0.00,134.000000,,2013-10-30 16:43:00,
2013-10-30 09:53:00,48.0,40.0,-100.00,WSW,239,2.0,9.0,74,0.00,,,0.00,134.000000,,2013-10-30 16:53:00,
2013-10-30 10:02:00,48.0,40.0,-100.00,WSW,239,2.0,9.0,74,0.00,,,0.00,134.000000,,2013-10-30 17:02:00,
2013-10-30 10:42:00,54.0,42.0,-100.00,SSW,195,2.0,6.0,64,0.00,,,0.00,313.000000,,2013-10-30 17:42:00,
2013-10-30 10:52:00,54.0,42.0,-100.00,SSW,195,2.0,6.0,64,0.00,,,0.00,313.000000,,2013-10-30 17:52:00,
2013-10-30 11:02:00,54.0,42.0,-100.00,SSW,195,2.0,6.0,64,0.00,,,0.00,313.000000,,2013-10-30 18:02:00,
2013-10-30 11:42:00,62.0,45.0,-100.00,SSW,196,0.0,4.0,53,0.00,,,0.00,477.000000,,2013-10-30 18:42:00,
2013-10-30 11:52:00,62.0,45.0,-100.00,SSW,196,0.0,4.0,53,0.00,,,0.00,477.000000,,2013-10-30 18:52:00,
2013-10-30 12:01:00,62.0,45.0,-100.00,SSW,196,0.0,4.0,53,0.00,,,0.00,477.000000,,2013-10-30 19:01:00,
2013-10-30 12:42:00,64.0,43.0,-100.00,East,86,5.0,10.0,46,0.00,,,0.00,537.000000,,2013-10-30 19:42:00,
2013-10-30 12:52:00,64.0,43.0,-100.00,East,86,5.0,10.0,46,0.00,,,0.00,537.000000,,2013-10-30 19:52:00,
2013-10-30 13:02:00,64.0,43.0,-100.00,East,86,5.0,10.0,46,0.00,,,0.00,537.000000,,2013-10-30 20:02:00,
2013-10-30 13:22:00,67.0,41.0,-100.00,ESE,102,5.0,12.0,39,0.00,,,0.00,650.000000,,2013-10-30 20:22:00,
2013-10-30 13:32:00,67.0,41.0,-100.00,ESE,102,5.0,12.0,39,0.00,,,0.00,650.000000,,2013-10-30 20:32:00,
2013-10-30 13:42:00,67.0,41.0,-100.00,ESE,102,5.0,12.0,39,0.00,,,0.00,650.000000,,2013-10-30 20:42:00,
2013-10-30 13:52:00,67.0,41.0,-100.00,ESE,102,5.0,12.0,39,0.00,,,0.00,650.000000,,2013-10-30 20:52:00,
2013-10-30 14:01:00,67.0,41.0,-100.00,ESE,102,5.0,12.0,39,0.00,,,0.00,650.000000,,2013-10-30 21:01:00,
2013-10-30 14:22:00,67.0,39.0,-100.00,East,90,7.0,14.0,36,0.00,,,0.00,642.000000,,2013-10-30 21:22:00,
2013-10-30 14:33:00,67.0,39.0,-100.00,East,90,7.0,14.0,36,0.00,,,0.00,642.000000,,2013-10-30 21:33:00,
2013-10-30 14:43:00,67.0,39.0,-100.00,East,90,7.0,14.0,36,0.00,,,0.00,642.000000,,2013-10-30 21:43:00,
2013-10-30 14:53:00,67.0,39.0,-100.00,East,90,7.0,14.0,36,0.00,,,0.00,642.000000,,2013-10-30 21:53:00,
2013-10-30 15:03:00,67.0,39.0,-100.00,East,90,7.0,14.0,36,0.00,,,0.00,642.000000,,2013-10-30 22:03:00,
2013-10-30 15:43:00,68.0,37.0,-100.00,ENE,71,6.0,15.0,32,0.00,,,0.00,569.000000,,2013-10-30 22:43:00,
2013-10-30 15:54:00,68.0,37.0,-100.00,ENE,71,6.0,15.0,32,0.00,,,0.00,569.000000,,2013-10-30 22:54:00,
2013-10-30 16:02:00,68.0,37.0,-100.00,ENE,71,6.0,15.0,32,0.00,,,0.00,569.000000,,2013-10-30 23:02:00,
2013-10-30 16:42:00,69.0,37.0,-100.00,East,92,5.0,12.0,31,0.00,,,0.00,442.000000,,2013-10-30 23:42:00,
2013-10-30 16:53:00,69.0,37.0,-100.00,East,92,5.0,12.0,31,0.00,,,0.00,442.000000,,2013-10-30 23:53:00,
2013-10-30 17:02:00,69.0,37.0,-100.00,East,92,5.0,12.0,31,0.00,,,0.00,442.000000,,2013-10-31 00:02:00,
2013-10-30 17:22:00,67.0,38.0,-100.00,East,98,5.0,13.0,35,0.00,,,0.00,288.000000,,2013-10-31 00:22:00,
2013-10-30 17:32:00,67.0,38.0,-100.00,East,98,5.0,13.0,35,0.00,,,0.00,288.000000,,2013-10-31 00:32:00,
2013-10-30 17:42:00,67.0,38.0,-100.00,East,98,5.0,13.0,35,0.00,,,0.00,288.000000,,2013-10-31 00:42:00,
2013-10-30 17:52:00,67.0,38.0,-100.00,East,98,5.0,13.0,35,0.00,,,0.00,288.000000,,2013-10-31 00:52:00,
2013-10-30 18:02:00,67.0,38.0,-100.00,East,98,5.0,13.0,35,0.00,,,0.00,288.000000,,2013-10-31 01:02:00,
2013-10-30 18:42:00,59.0,41.0,-100.00,SW,229,1.0,7.0,51,0.00,,,0.00,27.000000,,2013-10-31 01:42:00,
2013-10-30 18:52:00,59.0,41.0,-100.00,SW,229,1.0,7.0,51,0.00,,,0.00,27.000000,,2013-10-31 01:52:00,
2013-10-30 19:02:00,59.0,41.0,-100.00,SW,229,1.0,7.0,51,0.00,,,0.00,27.000000,,2013-10-31 02:02:00,
2013-10-30 19:52:00,54.0,41.0,-100.00,SW,221,0.0,3.0,62,0.00,,,0.00,2.000000,,2013-10-31 02:52:00,
2013-10-30 20:02:00,54.0,41.0,-100.00,SW,221,0.0,3.0,62,0.00,,,0.00,2.000000,,2013-10-31 03:02:00,
2013-10-30 20:04:00,52.0,42.0,-100.00,SW,220,0.0,2.0,68,0.00,,,0.00,0.000000,,2013-10-31 03:04:00,
2013-10-30 20:44:00,52.0,42.0,-100.00,SW,220,0.0,2.0,68,0.00,,,0.00,0.000000,,2013-10-31 03:44:00,
2013-10-30 20:55:00,52.0,42.0,-100.00,SW,220,0.0,2.0,68,0.00,,,0.00,0.000000,,2013-10-31 03:55:00,
2013-10-30 21:43:00,49.0,41.0,-100.00,SW,225,0.0,2.0,75,0.00,,,0.00,0.000000,,2013-10-31 04:43:00,
2013-10-30 21:54:00,49.0,41.0,-100.00,SW,225,0.0,2.0,75,0.00,,,0.00,0.000000,,2013-10-31 04:54:00,
2013-10-30 22:03:00,49.0,41.0,-100.00,SW,225,0.0,2.0,75,0.00,,,0.00,0.000000,,2013-10-31 05:03:00,
2013-10-30 22:43:00,47.0,41.0,-100.00,SW,229,1.0,3.0,79,0.00,,,0.00,0.000000,,2013-10-31 05:43:00,
2013-10-30 22:52:00,47.0,41.0,-100.00,SW,229,1.0,3.0,79,0.00,,,0.00,0.000000,,2013-10-31 05:52:00,
2013-10-30 23:02:00,47.0,41.0,-100.00,SW,229,1.0,3.0,79,0.00,,,0.00,0.000000,,2013-10-31 06:02:00,
2013-10-30 23:42:00,47.0,41.0,-100.00,WSW,241,1.0,4.0,78,0.00,,,0.00,0.000000,,2013-10-31 06:42:00,
2013-10-30 23:53:00,47.0,41.0,-100.00,WSW,241,1.0,4.0,78,0.00,,,0.00,0.000000,,2013-10-31 06:53:00,